TimeCEST,TemperatureF,Dew PointF,Humidity,Sea Level PressureIn,VisibilityMPH,Wind Direction,Wind SpeedMPH,Gust SpeedMPH,PrecipitationIn,Events,Conditions,WindDirDegrees,DateUTC
12:20 AM,66.2,62.6,88,29.83,5.0,Calm,Calm,-,N/A,,Unknown,0,2012-10-10 22:20:00
12:50 AM,64.4,62.6,94,29.83,5.0,Variable,1.2,-,N/A,,Unknown,0,2012-10-10 22:50:00
1:20 AM,64.4,62.6,94,29.83,5.0,NE,2.3,-,N/A,,Unknown,50,2012-10-10 23:20:00
2:20 AM,62.6,60.8,94,29.83,5.0,Variable,1.2,-,N/A,,Unknown,0,2012-10-11 00:20:00
2:50 AM,64.4,60.8,88,29.83,5.0,WNW,2.3,-,N/A,,Unknown,290,2012-10-11 00:50:00
3:20 AM,62.6,60.8,94,29.80,5.0,North,2.3,-,N/A,,Unknown,360,2012-10-11 01:20:00
3:50 AM,62.6,60.8,94,29.80,5.0,North,2.3,-,N/A,,Unknown,360,2012-10-11 01:50:00
4:20 AM,62.6,60.8,94,29.80,5.0,North,2.3,-,N/A,,Unknown,10,2012-10-11 02:20:00
4:50 AM,62.6,60.8,94,29.83,5.0,NNE,3.5,-,N/A,,Unknown,30,2012-10-11 02:50:00
5:20 AM,62.6,60.8,94,29.83,5.0,NNW,2.3,-,N/A,,Unknown,340,2012-10-11 03:20:00
5:50 AM,62.6,62.6,100,29.83,5.0,North,3.5,-,N/A,,Unknown,10,2012-10-11 03:50:00
6:20 AM,62.6,60.8,94,29.83,5.0,North,3.5,-,N/A,,Unknown,10,2012-10-11 04:20:00
6:50 AM,62.6,60.8,94,29.83,-9999.0,NNE,4.6,-,N/A,,Clear,20,2012-10-11 04:50:00
7:20 AM,64.4,60.8,88,29.83,-9999.0,North,3.5,-,N/A,,Clear,10,2012-10-11 05:20:00
7:50 AM,64.4,60.8,88,29.83,-9999.0,North,3.5,-,N/A,,Clear,360,2012-10-11 05:50:00
8:20 AM,66.2,60.8,83,29.83,-9999.0,North,3.5,-,N/A,,Clear,360,2012-10-11 06:20:00
8:50 AM,68.0,60.8,78,29.86,-9999.0,North,4.6,-,N/A,,Clear,360,2012-10-11 06:50:00
9:20 AM,69.8,62.6,78,29.86,-9999.0,NNE,4.6,-,N/A,,Clear,20,2012-10-11 07:20:00
9:50 AM,71.6,62.6,73,29.86,-9999.0,NNE,4.6,-,N/A,,Clear,30,2012-10-11 07:50:00
10:20 AM,73.4,64.4,73,29.86,-9999.0,NE,3.5,-,N/A,,Clear,50,2012-10-11 08:20:00
10:50 AM,75.2,64.4,69,29.86,-9999.0,Variable,3.5,-,N/A,,Clear,0,2012-10-11 08:50:00
11:20 AM,77.0,62.6,61,29.86,6.2,Variable,3.5,-,N/A,,Partly Cloudy,0,2012-10-11 09:20:00
11:50 AM,78.8,62.6,57,29.86,6.2,Variable,3.5,-,N/A,,Partly Cloudy,0,2012-10-11 09:50:00
12:20 PM,77.0,62.6,61,29.86,6.2,South,3.5,-,N/A,,Scattered Clouds,170,2012-10-11 10:20:00
12:50 PM,78.8,62.6,57,29.86,6.2,SSW,8.1,-,N/A,,Partly Cloudy,200,2012-10-11 10:50:00
1:20 PM,77.0,62.6,61,29.86,6.2,SSW,8.1,-,N/A,,Partly Cloudy,210,2012-10-11 11:20:00
1:50 PM,77.0,64.4,65,29.86,6.2,SSW,8.1,-,N/A,,Partly Cloudy,210,2012-10-11 11:50:00
2:20 PM,77.0,64.4,65,29.86,6.2,SSW,8.1,-,N/A,,Partly Cloudy,200,2012-10-11 12:20:00
2:50 PM,77.0,66.2,69,29.86,6.2,SSW,8.1,-,N/A,,Partly Cloudy,210,2012-10-11 12:50:00
3:20 PM,75.2,66.2,73,29.86,6.2,SSW,8.1,-,N/A,,Partly Cloudy,200,2012-10-11 13:20:00
3:50 PM,77.0,66.2,69,29.86,6.2,SSW,10.4,-,N/A,,Partly Cloudy,210,2012-10-11 13:50:00
4:20 PM,77.0,64.4,65,29.86,6.2,SSW,9.2,-,N/A,,Scattered Clouds,200,2012-10-11 14:20:00
4:50 PM,75.2,66.2,73,29.86,6.2,SSW,8.1,-,N/A,,Scattered Clouds,200,2012-10-11 14:50:00
5:20 PM,75.2,64.4,69,29.83,6.2,South,6.9,-,N/A,,Partly Cloudy,190,2012-10-11 15:20:00
5:50 PM,73.4,66.2,78,29.86,6.2,SSW,4.6,-,N/A,,Partly Cloudy,200,2012-10-11 15:50:00
6:20 PM,73.4,66.2,78,29.86,6.2,SSW,6.9,-,N/A,,Partly Cloudy,200,2012-10-11 16:20:00
6:50 PM,73.4,66.2,78,29.86,6.2,South,5.8,-,N/A,,Partly Cloudy,190,2012-10-11 16:50:00
7:20 PM,73.4,64.4,73,29.86,6.2,South,5.8,-,N/A,,Partly Cloudy,170,2012-10-11 17:20:00
7:50 PM,73.4,64.4,73,29.86,6.2,South,5.8,-,N/A,,Partly Cloudy,180,2012-10-11 17:50:00
8:20 PM,73.4,64.4,73,29.86,6.2,South,5.8,-,N/A,,Partly Cloudy,180,2012-10-11 18:20:00
8:50 PM,73.4,64.4,73,29.86,6.2,South,6.9,-,N/A,,Partly Cloudy,180,2012-10-11 18:50:00
9:20 PM,73.4,64.4,73,29.89,6.2,South,5.8,-,N/A,,Partly Cloudy,180,2012-10-11 19:20:00
9:50 PM,73.4,64.4,73,29.89,6.2,South,4.6,-,N/A,,Partly Cloudy,190,2012-10-11 19:50:00
10:20 PM,73.4,64.4,73,29.89,6.2,South,5.8,-,N/A,,Partly Cloudy,170,2012-10-11 20:20:00
10:50 PM,73.4,64.4,73,29.89,6.2,South,5.8,-,N/A,Rain,Light Rain,180,2012-10-11 20:50:00
11:20 PM,71.6,64.4,78,29.89,6.2,South,5.8,-,N/A,,Mostly Cloudy,190,2012-10-11 21:20:00
11:50 PM,71.6,66.2,83,29.89,6.2,South,5.8,-,N/A,,Mostly Cloudy,180,2012-10-11 21:50:00